Waarnemingen

Advertentie
Mijn weer
Don Benito, Spanje (8333): temperatuur & dauwpunt: 15.11.2019 05:00:00 - 21.11.2019 05:00:00 (CET)Don Benito, Spanje (8333): windsnelheid & windstoten: 15.11.2019 05:00:00 - 21.11.2019 05:00:00 (CET)Don Benito, Spanje (8333): windrichting: 15.11.2019 05:00:00 - 21.11.2019 05:00:00 (CET)Don Benito, Spanje (8333): luchtdruk: 15.11.2019 05:00:00 - 21.11.2019 05:00:00 (CET)Don Benito, Spanje (8333): zicht: 15.11.2019 05:00:00 - 21.11.2019 05:00:00 (CET)Don Benito, Spanje (8333): Zonneschijnduur: 15.11.2019 05:00:00 - 21.11.2019 05:00:00 (CET)Don Benito, Spanje (8333): neerslag: 15.11.2019 05:00:00 - 21.11.2019 05:00:00 (CET)
Datum & Tijd tt [°C] td [°C] ff [km/u] ff [kn] fx [km/u] fx [kn] dd ppp [hPa] vv [km] sd [min] rr [mm]
21.11.2019 05:00:00 - - - - - - - - - - -
21.11.2019 04:00:00 9,1 8,1 5 3 12 6 ZZW 1009,6 20 0 0,0
21.11.2019 03:00:00 9,0 8,3 5 3 13 7 ZZW 1009,6 20 0 0,0
21.11.2019 02:00:00 8,5 7,8 0 0 8 4 N 1009,8 9 0 0,2
21.11.2019 01:00:00 8,2 7,6 0 0 6 4 N 1010,2 9 0 -
21.11.2019 00:00:00 7,7 7,0 3 1 6 4 W 1010,5 6 0 0,0
20.11.2019 23:00:00 8,2 7,4 2 1 4 2 W 1010,3 0,2 0 0,0
20.11.2019 22:00:00 9,4 8,7 1 1 5 3 ZZW 1009,9 3,0 0 0,0
20.11.2019 21:00:00 9,6 8,7 4 2 7 4 Z 1009,8 7 0 0,0
20.11.2019 20:00:00 9,6 8,5 2 1 8 4 NNO 1009,5 9 0 0,2
20.11.2019 19:00:00 10,1 9,0 2 1 7 4 NNO 1008,8 8 0 -
20.11.2019 18:00:00 10,6 9,2 2 1 8 5 NNW 1008,7 11 3 0,0
20.11.2019 17:00:00 11,1 9,3 4 2 9 5 ZW 1008,7 20 0 0,2
20.11.2019 16:00:00 10,5 8,1 4 2 10 5 ZO 1008,7 20 0 0,0
20.11.2019 15:00:00 9,9 8,1 3 1 7 4 ONO 1009,2 20 0 0,0
20.11.2019 14:00:00 9,3 7,3 5 3 13 7 ONO 1010,0 20 0 1,2
20.11.2019 13:00:00 9,3 6,5 8 4 19 10 OZO 1011,0 19 0 -
20.11.2019 12:00:00 9,0 5,9 6 3 17 9 ZZW 1012,1 12 0 0,4
20.11.2019 11:00:00 8,7 6,5 7 4 23 12 ZO 1012,0 20 0 0,4
20.11.2019 10:00:00 7,8 6,7 7 4 10 6 ZZO 1012,5 8 0 1,2
20.11.2019 09:00:00 7,2 6,1 2 1 6 4 ONO 1012,6 3,6 0 2,6
20.11.2019 08:00:00 6,9 5,3 2 1 6 4 NNO 1012,6 3,6 0 0,2
20.11.2019 07:00:00 6,3 4,8 3 1 13 7 NNO 1012,4 14 0 -
20.11.2019 06:00:00 6,0 5,0 3 2 6 4 O 1012,5 20 0 0,0
20.11.2019 05:00:00 4,9 3,9 3 2 5 3 NO 1013,2 10 0 0,0
20.11.2019 04:00:00 5,3 4,1 3 1 7 4 N 1013,8 5 0 0,0
20.11.2019 03:00:00 5,9 4,5 3 2 8 4 ZZO 1014,1 15 0 0,0
20.11.2019 02:00:00 6,3 5,0 3 2 5 3 ZZW 1014,5 14 0 0,0
20.11.2019 01:00:00 6,8 5,3 1 1 6 4 N 1015,3 12 0 -
20.11.2019 00:00:00 6,7 5,3 5 3 8 4 ZO 1015,6 8 0 0,0
19.11.2019 23:00:00 6,8 5,3 1 1 6 3 O 1016,2 5 0 0,0
19.11.2019 22:00:00 7,6 5,6 2 1 4 2 NO 1016,5 9 0 0,0
19.11.2019 21:00:00 8,3 5,9 2 1 6 3 ZO 1016,4 10 0 0,0
19.11.2019 20:00:00 8,7 5,8 2 1 4 2 Z 1016,5 14 0 0,0
19.11.2019 19:00:00 9,4 5,6 2 1 5 3 NNO 1016,3 20 0 -
19.11.2019 18:00:00 10,6 5,8 2 1 5 3 NO 1016,0 20 0 0,0
19.11.2019 17:00:00 11,6 5,6 2 1 7 4 NNO 1016,0 20 4 0,0
19.11.2019 16:00:00 11,7 5,1 2 1 6 4 O 1016,3 20 0 0,0
19.11.2019 15:00:00 11,0 4,6 3 1 7 4 NO 1017,0 20 0 0,0
19.11.2019 14:00:00 10,2 4,8 3 2 7 4 NNW 1018,1 20 0 0,0
19.11.2019 13:00:00 9,9 4,6 3 2 9 5 N 1018,7 14 0 -
19.11.2019 12:00:00 9,2 5,1 3 2 8 5 NO 1019,6 14 0 0,0
19.11.2019 11:00:00 7,5 4,6 3 1 8 4 NNO 1020,2 13 14 0,0
19.11.2019 10:00:00 6,5 4,3 2 1 5 3 N 1020,3 20 31 0,0
19.11.2019 09:00:00 4,0 3,0 1 1 6 3 NNO 1020,2 19 0 0,0
19.11.2019 08:00:00 3,7 2,7 2 1 4 2 NNO 1019,8 20 0 0,0
19.11.2019 07:00:00 3,5 2,1 2 1 5 3 NNO 1019,6 20 0 -
19.11.2019 06:00:00 4,1 2,7 3 2 11 6 Z 1019,5 20 0 0,0
19.11.2019 05:00:00 4,0 2,3 2 1 6 3 Z 1019,3 20 0 0,0
19.11.2019 04:00:00 4,4 2,7 3 2 9 5 Z 1019,6 20 0 0,0
19.11.2019 03:00:00 5,3 3,2 3 2 6 3 NNW 1019,2 20 0 0,0
19.11.2019 02:00:00 5,9 3,6 1 1 6 3 O 1019,0 20 0 0,0
19.11.2019 01:00:00 6,4 3,2 2 1 10 5 ZW 1019,5 20 0 -
19.11.2019 00:00:00 7,1 3,6 4 2 11 6 ZZW 1019,5 20 0 0,0
18.11.2019 23:00:00 7,2 3,8 4 2 13 7 Z 1019,7 20 0 0,0
18.11.2019 22:00:00 7,7 3,9 6 3 10 5 ZW 1019,3 20 0 0,0
18.11.2019 21:00:00 8,3 4,5 3 2 10 5 ZZW 1018,7 20 0 0,0
18.11.2019 20:00:00 9,4 4,5 1 1 6 3 W 1018,2 20 0 0,0
18.11.2019 19:00:00 10,6 3,8 3 2 10 6 NW 1017,6 20 0 -
18.11.2019 18:00:00 13,0 4,5 4 2 10 6 WZW 1016,7 20 49 0,0
18.11.2019 17:00:00 15,0 3,4 6 3 15 8 WZW 1016,2 20 57 0,0
18.11.2019 16:00:00 15,4 3,8 8 4 16 8 WZW 1016,0 20 60 0,0
18.11.2019 15:00:00 14,8 3,9 4 2 16 9 WNW 1016,2 20 60 0,0
18.11.2019 14:00:00 13,5 4,1 7 4 17 9 WNW 1016,4 20 60 0,0
18.11.2019 13:00:00 12,4 4,6 9 5 18 10 W 1017,1 20 60 -
18.11.2019 12:00:00 11,0 5,8 8 4 20 11 WZW 1017,5 20 60 0,0
18.11.2019 11:00:00 9,6 5,1 10 5 20 11 WZW 1017,5 20 60 0,0
18.11.2019 10:00:00 7,8 5,1 8 4 19 10 ZW 1016,9 20 60 0,0
18.11.2019 09:00:00 5,4 4,1 8 4 16 9 WZW 1016,4 20 36 0,0
18.11.2019 08:00:00 4,8 3,4 9 5 15 8 WZW 1015,7 20 0 0,0
18.11.2019 07:00:00 5,4 3,8 6 3 16 8 ZW 1015,4 20 0 -
18.11.2019 06:00:00 6,2 3,9 6 4 18 10 WZW 1014,5 20 0 0,0
18.11.2019 05:00:00 7,0 3,9 9 5 19 10 W 1013,9 20 0 0,0
18.11.2019 04:00:00 7,3 4,3 6 3 16 9 W 1013,4 20 0 0,0
18.11.2019 03:00:00 7,6 5,0 6 3 18 10 W 1013,0 20 0 0,0
18.11.2019 02:00:00 8,7 5,6 7 4 22 12 WNW 1012,9 20 0 0,0
18.11.2019 01:00:00 9,9 7,0 5 3 22 12 NW 1012,7 20 0 -
18.11.2019 00:00:00 11,9 9,9 7 4 24 13 NNW 1012,2 20 0 0,0
17.11.2019 23:00:00 12,4 11,4 11 6 30 16 W 1012,0 20 0 0,0
17.11.2019 22:00:00 12,7 11,8 11 6 42 23 W 1012,2 7 0 1,4
17.11.2019 21:00:00 13,1 12,0 17 9 38 20 W 1012,1 20 0 0,2
17.11.2019 20:00:00 13,2 12,1 16 9 35 19 WZW 1012,2 20 0 0,2
17.11.2019 19:00:00 12,6 11,8 9 5 17 9 ZW 1012,4 6 0 -
17.11.2019 18:00:00 11,5 10,5 3 2 7 4 Z 1013,4 3,4 0 2,4
17.11.2019 17:00:00 11,2 10,0 3 2 6 4 ZZO 1013,9 15 0 0,0
17.11.2019 16:00:00 10,8 9,7 3 1 6 4 NNO 1014,6 7 0 0,2
17.11.2019 15:00:00 10,1 9,0 1 1 6 4 OZO 1015,6 5 0 0,0
17.11.2019 14:00:00 9,6 8,5 3 2 8 4 W 1016,6 3,7 0 0,0
17.11.2019 13:00:00 9,2 8,3 3 1 9 5 N 1017,1 4,5 0 -
17.11.2019 12:00:00 8,7 7,8 2 1 9 5 NNO 1018,0 5 0 0,2
17.11.2019 11:00:00 7,9 7,0 6 4 10 6 ZO 1018,1 8 0 1,4
17.11.2019 10:00:00 7,2 6,2 5 3 13 7 OZO 1018,4 2,8 0 0,2
17.11.2019 09:00:00 7,0 6,1 7 4 14 7 ZO 1018,3 1,9 0 0,8
17.11.2019 08:00:00 6,8 5,8 3 1 8 5 Z 1018,5 2,0 0 0,4
17.11.2019 07:00:00 6,4 4,8 4 2 11 6 ZW 1018,6 2,4 0 -
17.11.2019 06:00:00 6,4 3,9 5 3 12 6 WZW 1018,7 9 0 0,0
17.11.2019 05:00:00 6,1 2,5 5 3 12 6 ZW 1018,7 19 0 0,0
17.11.2019 04:00:00 6,1 2,1 7 4 19 10 WZW 1019,0 20 0 0,0
17.11.2019 03:00:00 5,5 1,7 7 4 16 9 WZW 1019,5 20 0 0,0
17.11.2019 02:00:00 5,3 1,7 10 6 18 10 WZW 1019,5 20 0 0,0
17.11.2019 01:00:00 4,9 1,1 7 4 16 9 ZW 1019,9 20 0 -
17.11.2019 00:00:00 6,3 1,3 9 5 19 10 WZW 1019,9 20 0 0,0
16.11.2019 23:00:00 7,2 0,9 9 5 16 9 WZW 1019,5 19 0 0,0
16.11.2019 22:00:00 7,5 -0,3 6 3 16 8 ZW 1019,2 17 0 0,0
16.11.2019 21:00:00 7,6 -0,7 9 5 13 7 ZZW 1019,2 20 0 0,0
16.11.2019 20:00:00 8,9 -0,7 5 3 10 6 ZZW 1018,9 20 0 0,0
16.11.2019 19:00:00 10,0 -0,5 3 2 14 7 WZW 1018,1 20 0 -
16.11.2019 18:00:00 12,4 -2,0 4 2 15 8 WNW 1017,5 19 29 0,0
16.11.2019 17:00:00 13,1 -1,7 5 3 23 12 W 1017,5 20 43 0,0
16.11.2019 16:00:00 14,0 -2,0 10 5 26 14 W 1016,9 20 60 0,0
16.11.2019 15:00:00 13,6 -0,7 10 5 22 12 W 1016,9 20 60 0,0
16.11.2019 14:00:00 12,9 -0,5 8 4 20 11 W 1017,2 20 60 0,0
16.11.2019 13:00:00 11,1 0,4 6 3 14 8 W 1017,9 20 60 -
16.11.2019 12:00:00 9,8 0,4 6 3 14 7 WZW 1018,3 20 60 0,0
16.11.2019 11:00:00 8,2 0,9 6 4 20 11 WZW 1018,2 20 60 0,0
16.11.2019 10:00:00 5,6 0,9 9 5 17 9 WZW 1018,1 20 60 0,0
16.11.2019 09:00:00 2,8 0,2 5 3 13 7 WZW 1017,3 20 37 0,0
16.11.2019 08:00:00 1,4 -1,2 4 2 16 9 Z 1016,5 20 0 0,0
16.11.2019 07:00:00 2,1 -0,5 6 3 12 7 W 1015,2 20 0 -
16.11.2019 06:00:00 2,3 -0,3 7 4 13 7 WZW 1014,4 20 0 0,0
16.11.2019 05:00:00 1,8 -1,2 6 3 14 7 ZZO 1013,9 20 0 0,0
16.11.2019 04:00:00 2,6 -1,0 8 4 16 8 ZW 1013,4 20 0 0,0
16.11.2019 03:00:00 2,9 -1,2 6 3 16 9 WZW 1012,9 20 0 0,0
16.11.2019 02:00:00 3,1 -1,4 7 4 12 7 ZW 1012,4 20 0 0,0
16.11.2019 01:00:00 3,2 -2,0 4 2 10 5 ZZW 1012,3 20 0 -
16.11.2019 00:00:00 3,6 -1,7 5 3 11 6 ZW 1012,0 20 0 0,0
15.11.2019 23:00:00 4,1 -1,7 4 2 10 5 WZW 1011,6 20 0 0,0
15.11.2019 22:00:00 5,0 -1,4 3 2 9 5 W 1011,1 20 0 0,0
15.11.2019 21:00:00 6,3 -1,4 4 2 12 7 WZW 1010,2 20 0 0,0
15.11.2019 20:00:00 8,2 -2,2 5 3 19 10 NW 1009,4 20 0 0,0
15.11.2019 19:00:00 9,3 -2,5 8 4 20 11 WNW 1009,0 20 0 -
15.11.2019 18:00:00 10,9 -2,5 9 5 34 19 WNW 1008,2 20 35 0,0
15.11.2019 17:00:00 13,0 -2,5 11 6 30 16 NW 1007,5 20 48 0,0
15.11.2019 16:00:00 13,2 -1,2 12 7 27 15 NW 1007,2 20 43 0,0
15.11.2019 15:00:00 12,4 -1,2 10 6 30 16 NW 1007,6 20 42 0,0
15.11.2019 14:00:00 12,0 -1,0 13 7 35 19 NW 1007,9 20 57 0,0
15.11.2019 13:00:00 11,4 0,0 11 6 29 16 WNW 1008,7 20 53 -
15.11.2019 12:00:00 10,0 0,0 13 7 34 19 WNW 1009,7 20 58 0,0
15.11.2019 11:00:00 8,9 1,5 10 5 29 16 WNW 1009,6 20 60 0,0
15.11.2019 10:00:00 7,1 2,7 13 7 25 14 W 1009,8 19 60 0,0
15.11.2019 09:00:00 5,0 2,3 9 5 20 11 W 1009,6 20 31 0,0
15.11.2019 08:00:00 4,0 2,1 11 6 23 13 WZW 1009,0 19 0 0,0
15.11.2019 07:00:00 4,3 2,5 12 7 23 12 WZW 1009,0 17 0 -
15.11.2019 06:00:00 4,6 2,7 10 6 25 13 WZW 1008,8 20 0 0,0
15.11.2019 05:00:00 4,9 2,7 10 5 28 15 WZW 1008,6 20 0 0,0

tt = temperatuur
td = dauwpunt
ff = windsnelheid
fx = windstoten
dd = windrichting
ppp = luchtdruk
vv = zicht
sd = Zonneschijnduur
rr = neerslag

Weerstations in de omgeving